EW0603 Weather Reports


Display with metric or nautical units.
time (UTC)temp
F
wind
direction
speed
MPH
gust
MPH
rain 1hr
in
rain 24hr
in
rain mn
in
humidity
%
barometer
mb
20260508214641 63 0 1.0 0.0 0.00 0.00 0.00 48 1005.1
20260508214315 63 213 1.0 8.0 0.00 0.00 0.00 46 1005.1
20260508214211 63 204 1.0 8.0 0.00 0.00 0.00 46 1005.1
20260508214104 63 225 2.0 8.0 0.00 0.00 0.00 46 1005.1
20260508213959 63 231 2.0 8.0 0.00 0.00 0.00 46 1005.1
20260508213852 63 196 2.0 8.0 0.00 0.00 0.00 47 1005.1
20260508213310 63 219 1.0 8.0 0.00 0.00 0.00 46 1005.1
20260508213208 63 188 1.0 8.0 0.00 0.00 0.00 46 1005.0
20260508213103 63 211 2.0 8.0 0.00 0.00 0.00 46 1005.1
20260508212956 64 224 2.0 8.0 0.00 0.00 0.00 46 1005.1
20260508212854 64 227 2.0 8.0 0.00 0.00 0.00 46 1005.1
20260508212751 64 208 3.0 0.0 0.00 0.00 0.00 46 1005.1
20260508212649 64 194 4.0 10.0 0.00 0.00 0.00 45 1005.2
20260508212546 64 246 4.0 10.0 0.00 0.00 0.00 46 1005.2
20260508212440 64 250 4.0 10.0 0.00 0.00 0.00 45 1005.2
20260508212338 64 282 4.0 10.0 0.00 0.00 0.00 45 1005.2
20260508212234 64 263 4.0 10.0 0.00 0.00 0.00 45 1005.2
20260508211656 65 0 1.0 9.0 0.00 0.00 0.00 45 1005.3
20260508211549 65 265 1.0 9.0 0.00 0.00 0.00 46 1005.2
20260508211443 65 245 1.0 9.0 0.00 0.00 0.00 48 1005.2
20260508211339 65 281 1.0 9.0 0.00 0.00 0.00 48 1005.3
20260508211236 65 225 1.0 9.0 0.00 0.00 0.00 49 1005.2
20260508211129 64 236 1.0 9.0 0.00 0.00 0.00 48 1005.3
20260508211026 64 227 1.0 9.0 0.00 0.00 0.00 48 1005.3
20260508210923 64 197 1.0 9.0 0.00 0.00 0.00 49 1005.3
20260508210820 64 250 1.0 9.0 0.00 0.00 0.00 48 1005.3
20260508210716 64 178 1.0 9.0 0.00 0.00 0.00 49 1005.3
20260508210612 64 200 1.0 9.0 0.00 0.00 0.00 50 1005.3
20260508210508 63 180 1.0 9.0 0.00 0.00 0.00 47 1005.3
20260508210404 63 184 0.0 9.0 0.00 0.00 0.00 48 1005.3
20260508210300 63 0 0.0 9.0 0.00 0.00 0.00 47 1005.3
20260508205932 63 182 0.0 9.0 0.00 0.00 0.00 48 1005.2
20260508205827 64 176 0.0 4.0 0.00 0.00 0.00 48 1005.2
20260508205720 64 248 0.0 4.0 0.00 0.00 0.00 47 1005.2
20260508205617 64 257 0.0 4.0 0.00 0.00 0.00 49 1005.2
20260508205511 64 225 0.0 1.0 0.00 0.00 0.00 48 1005.2
20260508205404 64 250 1.0 4.0 0.00 0.00 0.00 47 1005.2
20260508205300 64 244 0.0 4.0 0.00 0.00 0.00 46 1005.2
20260508205153 64 225 0.0 2.0 0.00 0.00 0.00 46 1005.2
20260508205049 64 225 0.0 2.0 0.00 0.00 0.00 47 1005.3
20260508204944 64 203 0.0 7.0 0.00 0.00 0.00 46 1005.3
20260508204840 64 0 0.0 7.0 0.00 0.00 0.00 46 1005.3
20260508204737 64 257 0.0 7.0 0.00 0.00 0.00 47 1005.3
20260508204409 63 307 0.0 0.0 0.00 0.00 0.00 51 1005.3
20260508204303 63 190 0.0 3.0 0.00 0.00 0.00 48 1005.3
20260508204157 63 190 0.0 3.0 0.00 0.00 0.00 48 1005.4
20260508204053 63 172 1.0 3.0 0.00 0.00 0.00 48 1005.4
20260508203948 63 167 1.0 0.0 0.00 0.00 0.00 50 1005.4
20260508203840 63 263 1.0 0.0 0.00 0.00 0.00 49 1005.4
20260508203734 63 263 1.0 0.0 0.00 0.00 0.00 50 1005.4
20260508203631 62 261 1.0 0.0 0.00 0.00 0.00 49 1005.5
20260508203524 62 262 1.0 8.0 0.00 0.00 0.00 48 1005.5
20260508203419 62 290 2.0 8.0 0.00 0.00 0.00 48 1005.5
20260508203313 62 288 2.0 9.0 0.00 0.00 0.00 48 1005.5
20260508203207 63 311 1.0 9.0 0.00 0.00 0.00 48 1005.5
20260508203104 63 276 2.0 9.0 0.00 0.00 0.00 48 1005.5
20260508203002 63 281 2.0 9.0 0.00 0.00 0.00 48 1005.5
20260508202854 63 232 2.0 9.0 0.00 0.00 0.00 48 1005.6
20260508202529 63 243 4.0 9.0 0.00 0.00 0.00 46 1005.7
20260508202427 63 246 4.0 9.0 0.00 0.00 0.00 46 1005.6
20260508202321 63 0 4.0 9.0 0.00 0.00 0.00 46 1005.6
20260508202216 64 242 4.0 9.0 0.00 0.00 0.00 46 1005.6
20260508201153 65 179 1.0 0.0 0.00 0.00 0.00 51 1005.8
20260508200828 64 0 2.0 10.0 0.00 0.00 0.00 51 1005.8
20260508200725 64 227 2.0 10.0 0.00 0.00 0.00 50 1005.9
20260508200359 64 207 2.0 10.0 0.00 0.00 0.00 48 1005.9
20260508200253 64 163 1.0 10.0 0.00 0.00 0.00 49 1005.9
20260508200146 64 224 1.0 10.0 0.00 0.00 0.00 48 1005.9
20260508200041 64 221 1.0 10.0 0.00 0.00 0.00 48 1005.9
20260508195938 64 182 1.0 10.0 0.00 0.00 0.00 48 1006.0
20260508195833 63 211 2.0 10.0 0.00 0.00 0.00 48 1005.9
20260508195510 63 205 1.0 10.0 0.00 0.00 0.00 47 1005.9
20260508195407 63 207 1.0 10.0 0.00 0.00 0.00 45 1006.0
20260508195306 63 202 2.0 10.0 0.00 0.00 0.00 45 1006.0
20260508195200 63 239 3.0 10.0 0.00 0.00 0.00 45 1006.0
20260508195053 63 263 3.0 10.0 0.00 0.00 0.00 45 1006.1
20260508194949 63 176 3.0 10.0 0.00 0.00 0.00 44 1006.1
20260508194844 63 216 3.0 10.0 0.00 0.00 0.00 46 1006.1
20260508194737 63 199 4.0 0.0 0.00 0.00 0.00 45 1006.1
20260508194633 63 211 4.0 11.0 0.00 0.00 0.00 44 1006.2
20260508194527 63 207 5.0 13.0 0.00 0.00 0.00 43 1006.1
20260508194424 64 237 5.0 13.0 0.00 0.00 0.00 43 1006.1
20260508194317 64 286 5.0 13.0 0.00 0.00 0.00 43 1006.2
20260508193952 64 252 4.0 13.0 0.00 0.00 0.00 45 1006.4
20260508193850 64 288 5.0 13.0 0.00 0.00 0.00 45 1006.4
20260508193743 64 270 4.0 13.0 0.00 0.00 0.00 45 1006.4
20260508193641 64 300 5.0 13.0 0.00 0.00 0.00 46 1006.4
20260508193534 64 292 5.0 13.0 0.00 0.00 0.00 43 1006.4
20260508193428 64 0 5.0 13.0 0.00 0.00 0.00 44 1006.4
20260508193104 64 252 6.0 13.0 0.00 0.00 0.00 44 1006.4
20260508193001 64 268 6.0 13.0 0.00 0.00 0.00 45 1006.4
20260508192857 64 251 6.0 13.0 0.00 0.00 0.00 46 1006.4
20260508192755 64 234 6.0 13.0 0.00 0.00 0.00 44 1006.4
20260508192653 64 277 6.0 13.0 0.00 0.00 0.00 45 1006.4
20260508192549 64 275 6.0 13.0 0.00 0.00 0.00 44 1006.4
20260508192442 64 295 6.0 13.0 0.00 0.00 0.00 44 1006.5
20260508192340 64 235 6.0 13.0 0.00 0.00 0.00 44 1006.5
20260508192235 64 284 5.0 13.0 0.00 0.00 0.00 44 1006.5
20260508192128 63 0 4.0 13.0 0.00 0.00 0.00 46 1006.6
20260508192024 63 238 4.0 13.0 0.00 0.00 0.00 47 1006.5
20260508191917 63 242 3.0 13.0 0.00 0.00 0.00 47 1006.6
20260508191814 63 286 3.0 13.0 0.00 0.00 0.00 48 1006.6
20260508191451 63 0 0.0 7.0 0.00 0.00 0.00 47 1006.6
20260508191344 63 235 0.0 4.0 0.00 0.00 0.00 48 1006.7
20260508191021 63 167 0.0 2.0 0.00 0.00 0.00 49 1006.7
20260508190915 63 254 0.0 9.0 0.00 0.00 0.00 48 1006.7
20260508190811 63 254 1.0 9.0 0.00 0.00 0.00 50 1006.7
20260508190704 63 153 1.0 9.0 0.00 0.00 0.00 48 1006.8
20260508190116 63 0 2.0 19.0 0.00 0.00 0.00 49 1006.9
20260508190013 63 185 2.0 19.0 0.00 0.00 0.00 48 1006.9
20260508185908 63 236 3.0 19.0 0.00 0.00 0.00 48 1007.0
20260508185803 63 261 3.0 19.0 0.00 0.00 0.00 48 1007.0
20260508185658 64 183 3.0 19.0 0.00 0.00 0.00 48 1007.0
20260508185555 64 272 4.0 19.0 0.00 0.00 0.00 49 1007.0
20260508185448 64 126 4.0 19.0 0.00 0.00 0.00 49 1007.0
20260508185345 64 172 4.0 19.0 0.00 0.00 0.00 47 1007.1
20260508185241 64 0 4.0 19.0 0.00 0.00 0.00 47 1007.1
20260508184917 64 188 3.0 19.0 0.00 0.00 0.00 48 1007.0
20260508184812 64 170 4.0 19.0 0.00 0.00 0.00 48 1007.1
20260508184002 64 228 1.0 8.0 0.00 0.00 0.00 45 1007.1
20260508183857 64 0 0.0 8.0 0.00 0.00 0.00 45 1007.1
20260508183532 64 219 1.0 9.0 0.00 0.00 0.00 47 1007.2
20260508183425 64 167 1.0 9.0 0.00 0.00 0.00 48 1007.2
20260508183319 63 240 1.0 9.0 0.00 0.00 0.00 46 1007.3
20260508183212 63 221 2.0 9.0 0.00 0.00 0.00 46 1007.2
20260508183103 63 191 2.0 9.0 0.00 0.00 0.00 47 1007.2
20260508182959 63 258 2.0 9.0 0.00 0.00 0.00 47 1007.2
20260508182857 63 232 2.0 9.0 0.00 0.00 0.00 46 1007.3
20260508182754 63 277 2.0 11.0 0.00 0.00 0.00 47 1007.3
20260508182425 62 261 2.0 11.0 0.00 0.00 0.00 46 1007.3
20260508182318 62 260 2.0 11.0 0.00 0.00 0.00 46 1007.3
20260508182213 62 216 1.0 11.0 0.00 0.00 0.00 48 1007.3
20260508182108 62 235 1.0 11.0 0.00 0.00 0.00 45 1007.4
20260508181743 62 209 3.0 11.0 0.00 0.00 0.00 48 1007.5
20260508181637 62 236 3.0 11.0 0.00 0.00 0.00 47 1007.4
20260508181533 62 232 3.0 11.0 0.00 0.00 0.00 52 1007.5
20260508181429 62 237 4.0 11.0 0.00 0.00 0.00 48 1007.5
20260508181322 62 180 4.0 11.0 0.00 0.00 0.00 47 1007.5
20260508181217 62 0 4.0 11.0 0.00 0.00 0.00 49 1007.5
20260508181114 62 238 4.0 11.0 0.00 0.00 0.00 48 1007.6
20260508181006 62 232 4.0 11.0 0.00 0.00 0.00 47 1007.5
20260508180859 62 212 3.0 11.0 0.00 0.00 0.00 46 1007.5
20260508180753 62 0 3.0 10.0 0.00 0.00 0.00 46 1007.5
20260508180647 62 0 3.0 10.0 0.00 0.00 0.00 49 1007.5
20260508180545 62 240 2.0 10.0 0.00 0.00 0.00 48 1007.5
20260508180438 62 248 2.0 8.0 0.00 0.00 0.00 47 1007.5
20260508180331 62 259 2.0 7.0 0.00 0.00 0.00 49 1007.5
20260508180229 62 219 1.0 7.0 0.00 0.00 0.00 48 1007.6
20260508180122 62 200 1.0 7.0 0.00 0.00 0.00 46 1007.6
20260508180015 62 188 2.0 7.0 0.00 0.00 0.00 46 1007.5
20260508175912 62 182 2.0 6.0 0.00 0.00 0.00 47 1007.6
20260508175809 62 233 2.0 4.0 0.00 0.00 0.00 49 1007.6
20260508175701 62 203 2.0 4.0 0.00 0.00 0.00 50 1007.6
20260508175554 61 194 3.0 8.0 0.00 0.00 0.00 51 1007.6
20260508175233 61 238 3.0 9.0 0.00 0.00 0.00 50 1007.7
20260508175130 61 248 4.0 9.0 0.00 0.00 0.00 48 1007.7
20260508174806 61 0 3.0 9.0 0.00 0.00 0.00 48 1007.8
20260508174700 61 290 2.0 9.0 0.00 0.00 0.00 50 1007.8
20260508174556 60 0 2.0 9.0 0.00 0.00 0.00 48 1007.8
20260508174449 60 0 2.0 9.0 0.00 0.00 0.00 48 1007.8
20260508174342 60 234 2.0 9.0 0.00 0.00 0.00 49 1007.8
20260508174238 60 0 2.0 8.0 0.00 0.00 0.00 48 1007.8
20260508174130 60 256 2.0 8.0 0.00 0.00 0.00 49 1007.8
20260508174024 60 237 2.0 8.0 0.00 0.00 0.00 48 1007.9
20260508173702 60 190 2.0 8.0 0.00 0.00 0.00 48 1008.0
20260508173556 60 261 3.0 8.0 0.00 0.00 0.00 48 1008.0
20260508173454 60 237 2.0 8.0 0.00 0.00 0.00 48 1008.0
20260508173349 60 256 2.0 8.0 0.00 0.00 0.00 46 1008.0
20260508173247 60 237 2.0 5.0 0.00 0.00 0.00 50 1008.0
20260508172703 61 261 2.0 8.0 0.00 0.00 0.00 46 1008.1
20260508172556 61 288 2.0 8.0 0.00 0.00 0.00 46 1008.2
20260508172451 61 248 2.0 8.0 0.00 0.00 0.00 50 1008.2
20260508172121 61 275 3.0 8.0 0.00 0.00 0.00 49 1008.3
20260508172017 61 215 3.0 8.0 0.00 0.00 0.00 49 1008.4
20260508171913 61 254 2.0 8.0 0.00 0.00 0.00 48 1008.4
20260508171806 61 0 2.0 8.0 0.00 0.00 0.00 50 1008.4
20260508171702 61 286 1.0 8.0 0.00 0.00 0.00 49 1008.6
20260508171556 61 266 1.0 8.0 0.00 0.00 0.00 48 1008.5
20260508171231 61 199 1.0 8.0 0.00 0.00 0.00 52 1008.5
20260508171126 60 193 1.0 7.0 0.00 0.00 0.00 53 1008.6
20260508171023 60 218 1.0 3.0 0.00 0.00 0.00 54 1008.6
20260508170916 60 231 1.0 3.0 0.00 0.00 0.00 56 1008.6
20260508170813 60 208 1.0 8.0 0.00 0.00 0.00 56 1008.6
20260508170707 60 218 1.0 8.0 0.00 0.00 0.00 53 1008.6
20260508170600 60 191 1.0 8.0 0.00 0.00 0.00 52 1008.6
20260508170457 60 233 1.0 8.0 0.00 0.00 0.00 53 1008.6
20260508170352 60 185 1.0 8.0 0.00 0.00 0.00 54 1008.6
20260508170248 60 0 1.0 0.0 0.00 0.00 0.00 54 1008.6
20260508170144 60 228 1.0 0.0 0.00 0.00 0.00 56 1008.6
20260508170037 60 302 2.0 9.0 0.00 0.00 0.00 54 1008.7
20260508165930 59 304 2.0 9.0 0.00 0.00 0.00 53 1008.8
20260508165828 59 264 2.0 9.0 0.00 0.00 0.00 52 1008.8
20260508165722 59 234 2.0 9.0 0.00 0.00 0.00 51 1008.8
20260508165614 59 234 2.0 9.0 0.00 0.00 0.00 51 1008.8
20260508165510 59 210 3.0 9.0 0.00 0.00 0.00 52 1008.9
20260508165141 60 194 2.0 9.0 0.00 0.00 0.00 51 1008.9
20260508164813 60 180 2.0 7.0 0.00 0.00 0.00 53 1008.9
20260508164706 60 224 2.0 7.0 0.00 0.00 0.00 54 1008.9
20260508164342 59 252 1.0 7.0 0.00 0.00 0.00 55 1009.0
20260508164023 59 173 0.0 7.0 0.00 0.00 0.00 53 1009.0
20260508163655 59 178 0.0 7.0 0.00 0.00 0.00 56 1009.1
20260508163551 59 237 1.0 7.0 0.00 0.00 0.00 55 1009.1
20260508163447 59 224 0.0 7.0 0.00 0.00 0.00 55 1009.1
20260508163343 59 226 0.0 5.0 0.00 0.00 0.00 55 1009.1
20260508163240 59 227 0.0 1.0 0.00 0.00 0.00 57 1009.0
20260508163137 59 189 0.0 0.0 0.00 0.00 0.00 54 1009.0
20260508163035 59 284 1.0 6.0 0.00 0.00 0.00 53 1009.1
20260508162933 59 284 1.0 6.0 0.00 0.00 0.00 53 1009.1
20260508162827 59 297 1.0 6.0 0.00 0.00 0.00 57 1009.1
20260508162723 59 233 1.0 6.0 0.00 0.00 0.00 55 1009.2
20260508162615 59 255 1.0 6.0 0.00 0.00 0.00 56 1009.2
20260508162512 59 269 0.0 6.0 0.00 0.00 0.00 58 1009.2
20260508162407 59 218 1.0 6.0 0.00 0.00 0.00 57 1009.2
20260508162306 59 266 0.0 6.0 0.00 0.00 0.00 57 1009.1
20260508162202 59 184 0.0 6.0 0.00 0.00 0.00 56 1009.1
20260508162055 59 302 0.0 6.0 0.00 0.00 0.00 55 1009.1
20260508161948 58 313 0.0 6.0 0.00 0.00 0.00 58 1009.1
20260508161846 58 277 0.0 4.0 0.00 0.00 0.00 56 1009.1
20260508161743 58 270 0.0 4.0 0.00 0.00 0.00 55 1009.2
20260508161639 58 224 0.0 2.0 0.00 0.00 0.00 56 1009.2
20260508161311 58 225 0.0 4.0 0.00 0.00 0.00 54 1009.3
20260508161209 58 232 0.0 4.0 0.00 0.00 0.00 55 1009.3
20260508161105 58 232 0.0 4.0 0.00 0.00 0.00 57 1009.3
20260508161000 58 190 1.0 4.0 0.00 0.00 0.00 56 1009.3
20260508160635 58 228 1.0 0.0 0.00 0.00 0.00 57 1009.4
20260508160529 58 286 1.0 5.0 0.00 0.00 0.00 58 1009.4
20260508160422 58 288 1.0 4.0 0.00 0.00 0.00 59 1009.4
20260508160314 58 254 1.0 4.0 0.00 0.00 0.00 57 1009.4
20260508160208 58 191 2.0 5.0 0.00 0.00 0.00 57 1009.4
20260508160100 58 0 2.0 5.0 0.00 0.00 0.00 55 1009.5
20260508155957 58 257 2.0 5.0 0.00 0.00 0.00 56 1009.5
20260508155854 58 239 2.0 5.0 0.00 0.00 0.00 57 1009.5
20260508155752 58 209 1.0 5.0 0.00 0.00 0.00 57 1009.5
20260508155650 57 177 1.0 5.0 0.00 0.00 0.00 58 1009.4
20260508155545 57 0 1.0 5.0 0.00 0.00 0.00 58 1009.4
20260508155438 57 232 1.0 5.0 0.00 0.00 0.00 57 1009.5
20260508155334 57 232 1.0 5.0 0.00 0.00 0.00 60 1009.5
20260508155008 57 241 0.0 4.0 0.00 0.00 0.00 60 1009.4
20260508154904 57 159 0.0 4.0 0.00 0.00 0.00 60 1009.4
20260508154756 57 197 0.0 3.0 0.00 0.00 0.00 60 1009.4
20260508154653 56 275 0.0 0.0 0.00 0.00 0.00 60 1009.4
20260508154549 56 300 0.0 3.0 0.00 0.00 0.00 60 1009.4
20260508154446 56 300 0.0 3.0 0.00 0.00 0.00 59 1009.4
20260508154343 57 300 0.0 3.0 0.00 0.00 0.00 58 1009.4
20260508154017 57 219 0.0 3.0 0.00 0.00 0.00 60 1009.5
20260508153914 57 259 0.0 3.0 0.00 0.00 0.00 59 1009.5
20260508153813 57 248 0.0 3.0 0.00 0.00 0.00 60 1009.5
20260508153710 57 228 0.0 3.0 0.00 0.00 0.00 58 1009.5
20260508153605 57 228 0.0 3.0 0.00 0.00 0.00 60 1009.5
20260508153500 57 169 0.0 6.0 0.00 0.00 0.00 60 1009.6
20260508153134 57 179 0.0 6.0 0.00 0.00 0.00 59 1009.6
20260508153028 57 182 0.0 6.0 0.00 0.00 0.00 60 1009.6
20260508152708 57 192 0.0 6.0 0.00 0.00 0.00 60 1009.6
20260508152604 57 169 0.0 6.0 0.00 0.00 0.00 60 1009.6
20260508152459 57 187 0.0 6.0 0.00 0.00 0.00 59 1009.7
20260508152352 57 0 0.0 6.0 0.00 0.00 0.00 60 1009.7
20260508152250 56 254 0.0 6.0 0.00 0.00 0.00 60 1009.6
20260508152146 56 194 0.0 6.0 0.00 0.00 0.00 58 1009.6
20260508152043 56 261 0.0 6.0 0.00 0.00 0.00 58 1009.6
20260508151937 56 32 1.0 0.0 0.00 0.00 0.00 59 1009.6
20260508151830 56 32 1.0 0.0 0.00 0.00 0.00 59 1009.6
20260508151724 56 29 1.0 0.0 0.00 0.00 0.00 61 1009.6
20260508151620 56 28 1.0 0.0 0.00 0.00 0.00 61 1009.6
20260508151255 56 5 2.0 6.0 0.00 0.00 0.00 58 1009.6
20260508151150 56 21 1.0 6.0 0.00 0.00 0.00 60 1009.6
20260508150824 56 355 0.0 6.0 0.00 0.00 0.00 59 1009.6
20260508150720 56 313 0.0 6.0 0.00 0.00 0.00 57 1009.6
20260508150356 56 350 0.0 4.0 0.00 0.00 0.00 58 1009.7
20260508150250 56 15 0.0 0.0 0.00 0.00 0.00 58 1009.7
20260508145924 56 0 0.0 5.0 0.00 0.00 0.00 58 1009.8
20260508145820 56 0 0.0 5.0 0.00 0.00 0.00 57 1009.7
20260508145713 56 0 0.0 5.0 0.00 0.00 0.00 56 1009.7
20260508145608 56 11 0.0 5.0 0.00 0.00 0.00 58 1009.7
20260508145504 56 10 0.0 5.0 0.00 0.00 0.00 58 1009.7
20260508144702 55 314 0.0 0.0 0.00 0.00 0.00 58 1009.9
20260508144558 55 314 0.0 4.0 0.00 0.00 0.00 58 1009.8
20260508144452 55 303 0.0 4.0 0.00 0.00 0.00 61 1009.9
20260508144349 55 294 0.0 1.0 0.00 0.00 0.00 64 1009.9
20260508144246 55 32 0.0 2.0 0.00 0.00 0.00 64 1010.0
20260508144137 55 32 0.0 2.0 0.00 0.00 0.00 60 1009.9
20260508144035 55 15 0.0 2.0 0.00 0.00 0.00 60 1009.9
20260508143931 54 350 0.0 2.0 0.00 0.00 0.00 60 1009.9
20260508143829 54 355 0.0 0.0 0.00 0.00 0.00 60 1009.8
20260508143721 54 306 0.0 2.0 0.00 0.00 0.00 62 1009.8
20260508143616 54 331 0.0 2.0 0.00 0.00 0.00 62 1009.8
20260508143510 54 319 0.0 4.0 0.00 0.00 0.00 60 1009.8
20260508143407 54 261 0.0 4.0 0.00 0.00 0.00 62 1009.8
20260508143044 54 288 0.0 0.0 0.00 0.00 0.00 63 1009.8
20260508142941 54 19 0.0 0.0 0.00 0.00 0.00 63 1009.8
20260508142839 54 19 0.0 0.0 0.00 0.00 0.00 62 1009.8
20260508142735 54 19 0.0 0.0 0.00 0.00 0.00 62 1009.8
20260508142633 54 19 0.0 5.0 0.00 0.00 0.00 61 1009.9
20260508142527 54 22 0.0 5.0 0.00 0.00 0.00 63 1009.9
20260508142424 54 288 0.0 5.0 0.00 0.00 0.00 62 1009.9
20260508142319 54 347 0.0 5.0 0.00 0.00 0.00 65 1009.9
20260508142212 54 25 0.0 0.0 0.00 0.00 0.00 68 1010.0
20260508142110 53 60 0.0 2.0 0.00 0.00 0.00 67 1009.9
20260508142003 53 58 0.0 2.0 0.00 0.00 0.00 67 1010.0
20260508141857 53 296 0.0 2.0 0.00 0.00 0.00 68 1010.0
20260508141535 53 301 0.0 3.0 0.00 0.00 0.00 69 1010.1
20260508141431 53 282 0.0 0.0 0.00 0.00 0.00 67 1010.1
20260508141327 53 286 0.0 5.0 0.00 0.00 0.00 65 1010.1
20260508141225 53 286 0.0 5.0 0.00 0.00 0.00 66 1010.2
20260508140900 53 296 0.0 3.0 0.00 0.00 0.00 70 1010.2
20260508140756 53 335 0.0 3.0 0.00 0.00 0.00 71 1010.2
20260508140649 53 288 0.0 0.0 0.00 0.00 0.00 69 1010.2
20260508140542 53 280 0.0 0.0 0.00 0.00 0.00 73 1010.2
20260508140439 52 332 0.0 0.0 0.00 0.00 0.00 72 1010.2
20260508140335 52 332 0.0 0.0 0.00 0.00 0.00 72 1010.2
20260508140231 52 332 0.0 0.0 0.00 0.00 0.00 71 1010.2
20260508140124 52 321 0.0 0.0 0.00 0.00 0.00 72 1010.2
20260508140019 52 305 0.0 1.0 0.00 0.00 0.00 71 1010.2
20260508135912 52 277 0.0 1.0 0.00 0.00 0.00 71 1010.2